[[{"header":{"parameterUnit":"m.s-1","parameterCategory":1,"la1":30.2992,"la2":30.254,"lo1":-89.0895,"lo2":-89.0443,"dy":0.0025,"dx":0.0025,"nx":19,"ny":19,"refTime":"2026-05-08T09:00:00:Z","depth":0,"parameterNumber":2,"parameterNumberName":"U-component_of_WINDS"},"data":[0,0,0,-7.4037,-7.4042,-7.4275,-7.4276,-7.4608,-7.4611,0,0,0,0,0,0,0,0,0,0,0,-7.399,-7.3993,-7.4036,-7.4043,-7.4275,-7.4276,-7.4607,-7.4611,0,0,0,0,0,0,0,0,0,0,0,-7.3988,-7.3992,-7.3996,-7.4044,-7.4275,-7.4276,-7.4607,-7.4418,0,0,0,0,0,0,0,0,0,0,-7.4186,-7.4165,-7.3991,-7.3996,-7.4045,-7.4275,-7.4276,-7.4409,-7.443,-7.4517,0,-7.4602,0,-7.4612,-7.4636,-7.4637,0,0,0,-7.4026,-7.4147,-7.419,-7.3996,-7.4047,-7.4275,-7.4166,-7.442,-7.4445,-7.4546,-7.4606,-7.4618,-7.4618,-7.4638,-7.464,-7.5199,-7.5202,0,0,-7.4013,-7.4043,-7.4174,-7.4207,-7.4175,-7.4158,-7.4173,-7.4434,-7.4502,-7.4608,-7.4625,-7.4623,-7.4641,-7.4643,-7.5196,-7.52,0,0,0,-7.3987,-7.4035,-7.4071,-7.4194,-7.4234,-7.4165,-7.4182,-7.449,-7.4499,-7.4628,-7.4627,-7.4643,-7.4647,-7.5192,-7.5197,-7.5393,0,0,0,-7.3979,-7.402,-7.4066,-7.4087,-7.423,-7.4365,-7.4233,-7.4481,-7.451,-7.4625,-7.4643,-7.4651,-7.5188,-7.5195,-7.5379,-7.548,0,0,0,-7.3967,-7.4018,-7.406,-7.4088,-7.4189,-7.436,-7.4384,-7.4487,-7.451,-7.4637,-7.4652,-7.5186,-7.5194,-7.5367,-7.546,-7.5634,0,0,0,-7.3963,-7.4232,-7.4063,-7.4363,-7.4188,-7.4481,-7.4382,-7.4599,-7.4731,-7.4645,-7.5189,-7.5197,-7.5364,-7.5448,-7.5621,-7.5784,-7.5855,0,0,-7.4319,-7.4276,-7.445,-7.4306,-7.4636,-7.4443,-7.4801,-7.4894,-7.4878,-7.5092,-7.5106,-7.5384,-7.5459,-7.5631,-7.6248,-7.6305,0,0,0,-7.4573,-7.4698,-7.4779,-7.4907,-7.4984,-7.5057,-7.5092,-7.5125,-7.5305,-7.4995,-7.5493,-7.5537,-7.5637,-7.5713,-7.5762,-7.5844,-7.5234,-7.5233,-7.5232,-7.5121,-7.5086,-7.537,-7.5362,-7.5487,-7.5519,-7.5616,-7.5666,-7.5596,-7.5714,-7.5776,-7.6155,-7.6246,-7.6282,-7.6368,-7.5861,-7.5862,-7.5863,-7.5863,-7.5638,-7.5808,-7.5706,-7.5945,-7.5905,-7.6105,-7.6145,-7.6087,-7.6266,-7.6106,-7.6192,-7.6017,-7.6345,-7.6418,-7.5878,-7.5875,-7.5873,-7.5872,-7.5871,-7.5991,-7.6066,-7.6103,-7.6281,-7.6422,-7.6404,-7.658,-7.6538,-7.65,-7.6585,-7.6645,-7.6642,-7.6631,-7.6617,-7.6618,-7.662,-7.6621,-7.6622,-7.6623,-7.6342,-7.6377,-7.653,-7.6633,-7.6707,-7.68,-7.6833,-7.6905,-7.6973,-7.6928,-7.6929,-7.6844,-7.6385,-7.6269,-7.6643,-7.6639,-7.6637,-7.6635,-7.6633,-7.6876,-7.6748,-7.6985,-7.706,-7.7175,-7.7316,-7.726,-7.7409,-7.7462,-7.7549,-7.7447,-7.7115,-7.7067,-7.7028,-7.6932,-7.7455,-7.7455,-7.7455,-7.7455,-7.7172,-7.7144,-7.7375,-7.7496,-7.761,-7.7583,-7.7849,-7.7876,-7.7884,-7.7914,-7.7833,-7.7702,-7.7664,-7.7639,-7.7587,-7.7496,-7.8151,-7.8152,-7.8152,-7.7497,-7.7477,-7.7713,-7.7719,-7.7805,-7.7879,-7.8127,-7.8268,-7.8251,-7.818,-7.7936,-7.7907,-7.7695,-7.7628,-7.755,-7.7471,-7.7303,0,0]},{"header":{"parameterUnit":"m.s-1","parameterCategory":1,"la1":30.2992,"la2":30.254,"lo1":-89.0895,"lo2":-89.0443,"dy":0.0025,"dx":0.0025,"nx":19,"ny":19,"refTime":"2026-05-08T09:00:00:Z","depth":0,"parameterNumber":3,"parameterNumberName":"V-component_of_WINDS"},"data":[0,0,0,0.3331,0.3331,0.3381,0.3381,0.3423,0.3423,0,0,0,0,0,0,0,0,0,0,0,0.3303,0.3303,0.3331,0.3331,0.3381,0.3381,0.3423,0.3423,0,0,0,0,0,0,0,0,0,0,0,0.3303,0.3303,0.3303,0.3332,0.338,0.3381,0.3423,0.3393,0,0,0,0,0,0,0,0,0,0,0.3349,0.331,0.3303,0.3303,0.3332,0.338,0.3381,0.3392,0.3395,0.3391,0,0.3384,0,0.3404,0.3424,0.3424,0,0,0,0.3341,0.3308,0.3333,0.3303,0.3332,0.338,0.3361,0.3394,0.3397,0.3395,0.3385,0.3387,0.3405,0.3424,0.3425,0.3373,0.3372,0,0,0.3338,0.3305,0.3331,0.3335,0.3326,0.3359,0.3362,0.3396,0.3383,0.3386,0.3389,0.3406,0.3425,0.3425,0.3373,0.3373,0,0,0,0.3324,0.3302,0.3327,0.3332,0.3343,0.3361,0.3364,0.3382,0.3393,0.3389,0.3406,0.3425,0.3425,0.3374,0.3373,0.3306,0,0,0,0.3323,0.3294,0.3326,0.3305,0.3342,0.3363,0.3348,0.339,0.3395,0.3406,0.3425,0.3425,0.3375,0.3374,0.3309,0.3279,0,0,0,0.3304,0.3292,0.3295,0.3303,0.3323,0.3363,0.3376,0.3392,0.3405,0.3424,0.3425,0.3376,0.3374,0.3313,0.3284,0.3256,0,0,0,0.3274,0.3233,0.3293,0.3254,0.3323,0.3321,0.3376,0.3377,0.3386,0.3425,0.3375,0.3373,0.3314,0.3288,0.3259,0.3224,0.3207,0,0,0.3204,0.3224,0.3204,0.3259,0.3238,0.3317,0.3287,0.3326,0.3359,0.3366,0.3366,0.3308,0.3285,0.3256,0.3125,0.3111,0,0,0,0.317,0.3155,0.3157,0.3164,0.3194,0.3217,0.3266,0.3281,0.3289,0.3356,0.3292,0.3279,0.3263,0.3249,0.3237,0.3226,0.3365,0.3365,0.3366,0.302,0.3065,0.3035,0.3087,0.3093,0.3144,0.3154,0.3183,0.3226,0.321,0.3212,0.3126,0.3108,0.3099,0.3087,0.3198,0.3198,0.3198,0.3198,0.292,0.2906,0.2966,0.2958,0.3007,0.3001,0.3049,0.308,0.3082,0.3128,0.3117,0.3162,0.3082,0.3074,0.3193,0.3194,0.3195,0.3195,0.3195,0.2826,0.2827,0.2847,0.2864,0.2871,0.2926,0.2925,0.2969,0.3011,0.3,0.3007,0.3008,0.3014,0.3001,0.3,0.3,0.3,0.2999,0.2999,0.272,0.2745,0.2739,0.2769,0.2781,0.2801,0.2854,0.2867,0.2892,0.2924,0.2924,0.2968,0.3067,0.309,0.2995,0.2996,0.2996,0.2997,0.2997,0.26,0.2635,0.2625,0.2636,0.2677,0.2682,0.2739,0.2761,0.2778,0.2777,0.2825,0.2891,0.2914,0.2923,0.2943,0.2815,0.2815,0.2815,0.2815,0.2519,0.2536,0.2537,0.2553,0.2574,0.2625,0.2614,0.2656,0.2704,0.2718,0.2743,0.2773,0.2781,0.28,0.2812,0.2831,0.2678,0.2678,0.2678,0.2448,0.2469,0.245,0.2499,0.2534,0.2564,0.2555,0.2571,0.2633,0.2673,0.2729,0.2735,0.2784,0.2798,0.2836,0.2855,0.289,0,0]}]]